Weather History for Buckland, AK

Change the Weather History Date:

Sunday, December 9, 2012

  Actual Average (PASK) Record (PASK)
Temperature  
Mean Temperature -22 °F -  
Max Temperature -18 °F 1 °F 35 °F (2005)
Min Temperature -27 °F -6 °F -27 °F (1999)
Degree Days  
Heating Degree Days 88    
Moisture  
Dew Point -26 °F    
Average Humidity 86    
Maximum Humidity 100    
Minimum Humidity 63    
Precipitation  
Precipitation 0.00 in - - ()
Sea Level Pressure  
Sea Level Pressure 29.60 in    
Wind  
Wind Speed 0 mph (North)    
Max Wind Speed 0 mph    
Max Gust Speed -    
Visibility 10 miles    
Events      
Averages and records for this station are not official NWS values.
T = Trace of Precipitation, MM = Missing Value Source: NWS Daily Summary

Daily Weather History Graph

Daily Weather History Graph

Search for Another Location

Airport:

Trip Planner

Search our weather history database for the weather conditions in past years. The results will help you decide how hot, cold, wet, or windy it might be!

Date:

Astronomy

Dec. 09, 2012 Rise Set
Actual Time 11:59 AM AKST 3:15 PM AKST
Civil Twilight 10:25 AM AKST 4:48 PM AKST
Nautical Twilight 9:09 AM AKST 6:04 PM AKST
Astronomical Twilight 8:05 AM AKST 7:08 PM AKST
Moon 6:02 AM AKST (12/9) 2:04 PM AKST (12/9)
Length of Visible Light 6h 23m
Length of Day
3h 16m
Waning Crescent, 17% of the Moon is Illuminated
Dec 9
Waning Crescent
Dec 12
New
Dec 19
First Quarter
Dec 28
Full
Jan 4
Last Quarter

Hourly Weather History & Observations

Time (AKST) Temp. Dew Point Humidity Pressure Visibility Wind Dir Wind Speed Gust Speed Precip Events Conditions
12:16 AM -25.6 °F - N/A% 29.63 in 10.0 mi Calm Calm - N/A   Clear
12:36 AM -25.6 °F -29.2 °F 83% 29.62 in 10.0 mi Calm Calm - N/A   Clear
12:56 AM -27.4 °F - N/A% 29.62 in 10.0 mi Calm Calm - N/A   Clear
1:16 AM -25.6 °F - N/A% 29.61 in 10.0 mi Calm Calm - N/A   Clear
1:36 AM -25.6 °F - N/A% 29.60 in 10.0 mi Calm Calm - N/A   Clear
1:56 AM -25.6 °F - N/A% 29.60 in 10.0 mi Calm Calm - N/A   Clear
2:16 AM -25.6 °F - N/A% 29.59 in 10.0 mi Calm Calm - N/A   Clear
2:36 AM -25.6 °F - N/A% 29.59 in 10.0 mi Calm Calm - N/A   Clear
2:56 AM -25.6 °F - N/A% 29.58 in 10.0 mi Calm Calm - N/A   Clear
3:16 AM -25.6 °F - N/A% 29.58 in 10.0 mi Calm Calm - N/A   Clear
3:36 AM -27.4 °F - N/A% 29.58 in 10.0 mi Calm Calm - N/A   Clear
3:56 AM -27.4 °F - N/A% 29.58 in 10.0 mi Calm Calm - N/A   Clear
4:16 AM -27.4 °F - N/A% 29.57 in 10.0 mi Calm Calm - N/A   Clear
4:36 AM -25.6 °F - N/A% 29.57 in 10.0 mi Calm Calm - N/A   Clear
4:56 AM -27.4 °F - N/A% 29.57 in 10.0 mi Calm Calm - N/A   Clear
5:16 AM -27.4 °F - N/A% 29.57 in 10.0 mi Calm Calm - N/A   Clear
5:36 AM -27.4 °F - N/A% 29.57 in 10.0 mi Calm Calm - N/A   Clear
5:56 AM -27.4 °F - N/A% 29.57 in 10.0 mi Calm Calm - N/A   Clear
6:16 AM -27.4 °F - N/A% 29.56 in 10.0 mi Calm Calm - N/A   Clear
6:36 AM -27.4 °F - N/A% 29.56 in 10.0 mi Calm Calm - N/A   Clear
6:56 AM -25.6 °F - N/A% 29.56 in 10.0 mi Calm Calm - N/A   Clear
7:16 AM -27.4 °F - N/A% 29.56 in 10.0 mi Calm Calm - N/A   Clear
7:36 AM -27.4 °F - N/A% 29.56 in 10.0 mi Calm Calm - N/A   Clear
7:56 AM -27.4 °F - N/A% 29.56 in 10.0 mi Calm Calm - N/A   Clear
8:16 AM -25.6 °F - N/A% 29.56 in 10.0 mi Calm Calm - N/A   Clear
8:36 AM -25.6 °F - N/A% 29.56 in 10.0 mi Calm Calm - N/A   Clear
8:56 AM -27.4 °F - N/A% 29.57 in 10.0 mi Calm Calm - N/A   Clear
9:16 AM -25.6 °F - N/A% 29.56 in 10.0 mi Calm Calm - N/A   Clear
9:36 AM -25.6 °F -27.4 °F 91% 29.56 in 10.0 mi Calm Calm - N/A   Clear
9:56 AM -25.6 °F - N/A% 29.57 in 10.0 mi Calm Calm - N/A   Clear
10:16 AM -25.6 °F - N/A% 29.56 in 10.0 mi Calm Calm - N/A   Clear
10:36 AM -25.6 °F - N/A% 29.57 in 10.0 mi Calm Calm - N/A   Clear
10:56 AM -25.6 °F -27.4 °F 91% 29.57 in 10.0 mi Calm Calm - N/A   Clear
11:16 AM -25.6 °F - N/A% 29.58 in 10.0 mi Calm Calm - N/A   Clear
11:36 AM -23.8 °F - N/A% 29.58 in 10.0 mi Calm Calm - N/A   Clear
11:56 AM -25.6 °F - N/A% 29.59 in 10.0 mi Calm Calm - N/A   Clear
12:16 PM -23.8 °F -25.6 °F 91% 29.59 in 10.0 mi Calm Calm - N/A   Clear
12:36 PM -23.8 °F - N/A% 29.59 in 10.0 mi Calm Calm - N/A   Clear
12:56 PM -23.8 °F - N/A% 29.60 in 10.0 mi Calm Calm - N/A   Clear
1:16 PM -23.8 °F -29.2 °F 76% 29.60 in 10.0 mi Calm Calm - N/A   Clear
1:36 PM -23.8 °F -23.8 °F 100% 29.60 in 10.0 mi Calm Calm - N/A   Clear
1:56 PM -23.8 °F - N/A% 29.60 in 10.0 mi Calm Calm - N/A   Clear
2:16 PM -23.8 °F - N/A% 29.60 in 10.0 mi Calm Calm - N/A   Clear
2:36 PM -23.8 °F -27.4 °F 83% 29.60 in 10.0 mi Calm Calm - N/A   Clear
2:56 PM -22.0 °F -23.8 °F 91% 29.60 in 10.0 mi Calm Calm - N/A   Clear
3:16 PM -23.8 °F - N/A% 29.61 in 10.0 mi Calm Calm - N/A   Clear
3:36 PM -22.0 °F - N/A% 29.60 in 10.0 mi Calm Calm - N/A   Clear
3:56 PM -23.8 °F -29.2 °F 76% 29.61 in 10.0 mi Calm Calm - N/A   Clear
4:16 PM -22.0 °F -27.4 °F 76% 29.61 in 10.0 mi Calm Calm - N/A   Clear
4:36 PM -23.8 °F - N/A% 29.61 in 10.0 mi Calm Calm - N/A   Clear
4:56 PM -23.8 °F - N/A% 29.61 in 10.0 mi Calm Calm - N/A   Clear
5:16 PM -23.8 °F -23.8 °F 100% 29.61 in 10.0 mi Calm Calm - N/A   Clear
5:36 PM -22.0 °F - N/A% 29.62 in 8.0 mi Calm Calm - N/A   Clear
5:56 PM -22.0 °F - N/A% 29.62 in 10.0 mi Calm Calm - N/A   Clear
6:16 PM -23.8 °F - N/A% 29.63 in 10.0 mi Calm Calm - N/A   Clear
6:36 PM -23.8 °F - N/A% 29.63 in 10.0 mi Calm Calm - N/A   Clear
6:56 PM -23.8 °F -23.8 °F 100% 29.63 in 10.0 mi Calm Calm - N/A   Clear
7:16 PM -22.0 °F - N/A% 29.63 in 10.0 mi Calm Calm - N/A   Clear
7:36 PM -22.0 °F - N/A% 29.63 in 10.0 mi Calm Calm - N/A   Clear
7:56 PM -23.8 °F - N/A% 29.63 in 10.0 mi Calm Calm - N/A   Clear
8:16 PM -23.8 °F -25.6 °F 91% 29.64 in 10.0 mi Calm Calm - N/A   Clear
8:36 PM -22.0 °F -27.4 °F 76% 29.64 in 10.0 mi Calm Calm - N/A   Clear
8:56 PM -20.2 °F - N/A% 29.64 in 10.0 mi Calm Calm - N/A   Clear
9:16 PM -20.2 °F -25.6 °F 76% 29.64 in 10.0 mi Calm Calm - N/A   Clear
9:36 PM -20.2 °F -23.8 °F 83% 29.64 in 10.0 mi Calm Calm - N/A   Clear
9:56 PM -20.2 °F - N/A% 29.64 in 10.0 mi Calm Calm - N/A   Clear
10:16 PM -20.2 °F -29.2 °F 63% 29.64 in 10.0 mi Calm Calm - N/A   Clear
10:36 PM -18.4 °F -18.4 °F 100% 29.64 in 10.0 mi Calm Calm - N/A   Clear
10:56 PM -18.4 °F - N/A% 29.65 in 10.0 mi Calm Calm - N/A   Clear
11:16 PM -20.2 °F - N/A% 29.65 in 10.0 mi Calm Calm - N/A   Clear
11:56 PM -20.2 °F - N/A% 29.65 in 10.0 mi Calm Calm - N/A   Clear